Sigil TimeFrame

Sigil TimeFrame ⇒ XML

NameTime LeftWindow OpensKilledCrew
Kretok, Descendant of Nature2d 06:352018-05-22 00:53:002018-04-28 05:22:00The Truly Terrible Ten
Skarthul the Avenged1d 06:242018-05-23 01:04:002018-05-03 07:41:00Fate
Viserion, the Necrodragon1d 01:332018-05-23 05:55:002018-04-29 12:50:00Fate
Howldroid, Tormentor of the Pit0d 21:522018-05-23 09:36:002018-05-04 01:54:00SAVAGE [COES2]
Threk, King of Lords0d 12:352018-05-23 18:53:002018-05-02 01:27:00TeddyPain Production's
Traxodon the Plaguebringer0d 12:162018-05-23 19:12:002018-05-01 12:37:00TeddyPain Production's
Garland, The Lord Keeper0d 05:002018-05-24 02:28:002018-05-04 04:19:00Latvija
Tsort0d 04:292018-05-24 02:59:002018-05-03 07:14:00Sigil
Archdevil Yirkon0d 03:432018-05-24 03:45:002018-05-02 03:42:00SAVAGE [ASTRAL3]
Lord Suka0d 03:352018-05-24 03:53:002018-05-01 21:05:00SAVAGE [POT1]
Zikkir the Dark Archer0d 03:212018-05-24 04:07:002018-05-03 00:35:00SAVAGE [ASTRAL3]
Sarcrina the Astral Priestess0d 03:122018-05-24 04:16:002018-05-02 13:45:00[Fate] Sqweeks
Wanhiroeaz the Devourer0d 02:472018-05-24 04:41:002018-05-03 17:40:00Harvester Of Sorrow
Dreg nor, Keeper of the Infernal Essence0d 02:152018-05-24 05:13:002018-05-02 23:15:00Emailcash Crew
Brutalitar, Lord of the Underworld0d 00:022018-05-24 07:31:002018-05-02 09:08:00[Fate] Hound
Freezebreed, The Frozen Manipulator0d 02:192018-05-24 09:48:002018-05-03 14:26:00[Fate] Soundwave
Lord Narada0d 02:422018-05-24 10:11:002018-05-04 02:56:00[Fate] Breakaway
Hyrak, Bringer of Nightmares0d 02:542018-05-24 10:23:002018-05-03 08:03:00XXxxHoTMoROxxXX
Melt Bane, The Forbidden Demon Dragon0d 03:282018-05-24 10:57:002018-05-03 18:56:00SAVAGE [COES4]
Anguish0d 05:182018-05-24 12:47:002018-05-02 01:06:00Sigil
Amalgamated Apparition0d 05:272018-05-24 12:56:002018-05-03 21:48:00SAVAGE [ASTRAL3]
Slashbrood, Devourer of the Blackness0d 05:422018-05-24 13:11:002018-04-29 13:05:00[Fate] Ironhide
Ag Nabak the Abomination0d 06:412018-05-24 14:10:002018-05-01 01:04:00.::BRUTE-FORCE::.
Gnorb0d 06:542018-05-24 14:23:002018-05-02 05:12:00• AfterShock •_1
Pinosis0d 06:562018-05-24 14:25:002018-05-03 21:57:00• Rev†vaL •
Vitkros, Hydra of the Deep0d 07:522018-05-24 15:21:002018-05-04 04:25:00Latvija
Lord Varan0d 08:462018-05-24 16:15:002018-05-03 15:02:00[Fate] Breakaway
King Ashnar, Lord of the Unliving0d 10:132018-05-24 17:42:002018-05-01 20:13:00[Fate] Drift
Bloodchill the Grizzly0d 10:372018-05-24 18:06:002018-05-03 09:40:00• AfterShock •_1
Tylos, The Lord Master0d 11:302018-05-24 18:59:002018-05-02 20:53:00Harvester Of Sorrow
Emperor Neudeus, Controller of the Universe0d 11:562018-05-24 19:25:002018-05-01 06:47:00[Fate] Barricade
Rotborn, Eater of the Dead0d 12:062018-05-24 19:35:002018-05-03 04:58:00[Fate] Ironhide
Synge, The Red Dragon0d 12:242018-05-24 19:53:002018-05-03 11:19:00• Rev†vaL •
Ebliss, Fallen Angel of Despair0d 12:412018-05-24 20:10:002018-05-03 21:17:00SAVAGE [POT2]
Baron Mu, Dark Rider of the Undead0d 12:422018-05-24 20:11:002018-05-04 05:50:00SAVAGE [BARON]
Gorganus of the Wood0d 14:212018-05-24 21:50:002018-05-02 20:36:00Where's The Loot At ?!
Raiyar, the Shadow Master0d 15:082018-05-24 22:37:002018-05-03 22:23:00SAVAGES
Volgan the Living Ironbark0d 15:232018-05-24 22:52:002018-05-02 07:33:00[Fate] Megatron
Crane0d 15:572018-05-24 23:26:002018-05-04 06:05:00Sigil
Lady Chaos, Queen of the Abyss0d 16:272018-05-24 23:56:002018-05-02 15:54:00[Fate] Bonecrusher
Ganja the Stone Golem0d 16:342018-05-25 00:03:002018-05-03 11:55:00•| Dark Prophecy |•
Smoot the Yeti0d 16:372018-05-25 00:06:002018-05-03 21:29:00•| Dark Prophecy |•
Nessam0d 18:172018-05-25 01:46:002018-05-03 17:25:00•| Dark Prophecy |•
Detox0d 19:112018-05-25 02:40:002018-05-02 12:57:00•| Dark Prophecy |•
Jorun the Blazing Swordsman0d 20:222018-05-25 03:51:002018-05-03 11:15:00[Fate] Optimus
Murderface0d 20:572018-05-25 04:26:002018-05-03 03:19:00• Rev†vaL •
Shadow0d 22:082018-05-25 05:37:002018-05-03 02:58:00• Rev†vaL •
Samatha Dark-Soul0d 22:322018-05-25 06:01:002018-05-02 13:27:00• Rev†vaL •
The Emerald Assassin1d 00:592018-05-25 08:28:002018-05-02 12:21:00Dominating Penguins
Akkel the Enflamed Warrior1d 01:392018-05-25 09:08:002018-05-02 21:03:00SAVAGE [ASTRAL2]
Great Lord Ganeshan1d 02:322018-05-25 10:01:002018-05-02 07:13:00[Fate] Breakaway
Lady Ariella1d 04:592018-05-25 12:28:002018-05-02 16:36:00[Fate] Breakaway
Mistress of the Sword1d 06:282018-05-25 13:57:002018-05-03 13:26:00Not Losters RGA
Ancient Magus Tarkin1d 07:032018-05-25 14:32:002018-05-03 09:11:00[Fate] Sqweeks
Rancid, Lord of Thugs1d 08:062018-05-25 15:35:002018-05-03 17:43:00Harvester Of Sorrow
Balerion, Dragon of Dread1d 09:142018-05-25 16:43:002018-04-29 02:54:00SAVAGES
Numerocure, The Black Messenger of Evil1d 10:272018-05-25 17:56:002018-05-01 22:14:00SAVAGE [COES4]
Crolvak, the Fire Master1d 10:342018-05-25 18:03:002018-05-03 23:19:00The Terrible Ten
Grivvek, Protector of the Brood1d 10:472018-05-25 18:16:002018-05-03 15:58:00Pure and Driven
Jazzmin, Maiden of Vitality1d 12:202018-05-25 19:49:002018-05-03 07:04:00Dominating Penguins
Dlanod, the Crazed Chancellor1d 14:162018-05-25 21:45:002018-05-03 01:24:00SAVAGES
Sylvanna TorLai1d 14:222018-05-25 21:51:002018-04-30 18:37:00The Fluffy Savages
Windstrike The Vile1d 15:142018-05-25 22:43:002018-04-29 09:26:00Hero Academia
Terrance, Rebel of Rallis1d 16:232018-05-25 23:52:002018-05-02 09:42:00Not Losters RGA
Nafir, God of Desolation1d 20:322018-05-26 04:01:002018-05-03 03:52:00The Terrible Ten
Keeper of Nature1d 21:122018-05-26 04:41:002018-05-01 02:10:00SAVAGE [ASTRAL3]
Lord Sibannac1d 21:472018-05-26 05:16:002018-05-03 02:57:00.::BRUTE-FORCE::.
Zertan, The Collector1d 23:252018-05-26 06:54:002018-05-03 02:09:00Not Losters RGA
Nayark the Mummified Sorcerer1d 23:512018-05-26 07:20:002018-05-03 19:41:00SAVAGE [ASTRAL4]
Skybrine The Inescapable2d 07:462018-05-26 15:15:002018-04-29 09:46:00~ White Sands Fortress ~
Xynak, the Arcane Master2d 12:102018-05-26 19:39:002018-04-29 16:33:00•Ou†war Immor†als•
Hackerphage, Protector of the Gateway2d 13:582018-05-26 21:27:002018-05-03 04:55:00SAVAGE [COES4]
Lord Xordam2d 14:402018-05-26 22:09:002018-05-01 09:32:00• Rev†vaL •
Quiver, The Renegade2d 15:282018-05-26 22:57:002018-04-29 03:31:00•Invi†cus Mortem•
Nar Zhul, Slayer of All3d 01:502018-05-27 09:19:002018-05-03 21:27:00The Order
Crantos, Defender of Ultimation3d 02:112018-05-27 09:40:002018-04-29 16:28:00The Order
Lacuste of the Swarm3d 07:082018-05-27 14:37:002018-05-03 19:15:00SAVAGE
Q-SEC Commander3d 09:442018-05-27 17:13:002018-05-02 14:40:00Phoenix Rising
Karvaz, Lord of Alsayic3d 13:392018-05-27 21:08:002018-05-03 01:51:00SAVAGES
Bolkor, the Holy Master3d 14:322018-05-27 22:01:002018-05-02 15:30:00Transformers
Sigil, Lich of Woe3d 15:472018-05-27 23:16:002018-04-30 21:12:00The Order
Varsanor, Master of Darkness3d 20:462018-05-28 04:15:002018-04-30 23:28:00The Order
Felroc, Overseer of Hellfire3d 23:132018-05-28 06:42:002018-05-03 09:25:00Hero Academia
Esquin, the Kinetic Master4d 00:162018-05-28 07:45:002018-04-29 20:47:00The Truly Terrible Ten
Ormsul the Putrid4d 03:022018-05-28 10:31:002018-05-02 06:08:00The Fluffy Savages
Straya, the Underworld Ruler4d 03:172018-05-28 10:46:002018-05-02 09:50:00SAVAGES
Anvilfist4d 03:452018-05-28 11:14:002018-04-30 22:39:00Where's The Loot At ?!
Kro Shuk, Doomslayer4d 05:272018-05-28 12:56:002018-05-01 08:11:00Emailcash Crew
Old World Drake65d 17:402018-03-19 13:48:002018-03-15 01:48:00The Immortal Legion
Jade Dragonite65d 17:342018-03-19 13:54:002018-03-15 01:54:00The Immortal Legion
Animated Captain31d 12:072018-04-22 19:21:002018-04-17 13:21:00Phoenix Rising
91 Gods, Last update: 2018-05-24 06:30:02